User: anonymous   Login
Location: Passau
(48.5830°N, 13.4830°E)
Time: 16:02:31
(UTC+02:00)
Language:

A-11 Canister half - Orbit

View from above orbital plane
View from above orbital plane
View from above satellite
View from above satellite

Ground track
Ground track

The orbit data is extracted from the following two-line orbital elements,

1 00053U 60009E   24139.75249793 -.00000067  00000-0  17551-3 0  9994
2 00053  47.2745 164.8508 0099007 349.7270  10.1497 12.17334065842916
Epoch (UTC): 18 May 2024 18:03:35
Eccentricity: 0.0099007
inclination: 47.2745°
perigee height: 1525 km
apogee height: 1683 km
right ascension of ascending node: 164.8508°
argument of perigee: 349.7270°
revolutions per day: 12.17334065
mean anomaly at epoch: 10.1497°
orbit number at epoch: 84291

The dashed part of the orbit path shows where the satellite is in the earth's shadow,  

DLR